Regional Weather Roundup
Issued by NWS

Home | Current Version | Previous Version | Text Only | Print | Product List | Glossary Off
Versions: 1 2 3 4 5 6 7 8 9 10 11 12 13 14 15 16 17 18 19 20 21 22 23 24 25 26 27 28 29 30 31 32 33 34 35 36 37 38 39 40 41 42 43 44 45 46 47 48 49 50

000
ASUS45 KBOU 120807
RWRCO

WEATHER ROUNDUP FOR COLORADO
NATIONAL WEATHER SERVICE DENVER/BOULDER CO
100 AM MST FRI FEB 12 2016

NOTE: "FAIR" INDICATES FEW OR NO CLOUDS BELOW 12000 FEET WITH NO
SIGNIFICANT WEATHER AND/OR OBSTRUCTIONS TO VISIBILITY.

COZ001>005-013-030-031-120900-
...NORTHWEST COLORADO...

CITY           SKY/WX    TMP DP  RH WIND       PRES   REMARKS
CRAIG          CLOUDY    15  11  83 CALM      30.40F
HAYDEN         CLOUDY    27  16  63 E13       30.39S WCI  16
MEEKER         CLOUDY    17  11  77 CALM      30.39F
MOUNT WERNER   NOT AVBL
STEAMBOAT SPGS CLOUDY    19  15  85 CALM      30.40S
WALDEN         CLOUDY    23  14  68 SE8       30.40S WCI  14
$$

COZ006>008-011-120900-
...WEST CENTRAL VALLEYS...

CITY           SKY/WX    TMP DP  RH WIND       PRES   REMARKS
GRAND JUNCTION CLOUDY    27  24  89 E9        30.41S WCI  18
MONTROSE       CLOUDY    25  18  74 SE6       30.44F WCI  18
EAGLE          CLOUDY    21  18  86 CALM      30.46S
RIFLE          CLOUDY    20  13  74 CALM      30.43S
DELTA          CLOUDY    30  25  81 CALM      30.43F
NUCLA          CLOUDY    30  21  69 E8        30.45S WCI  23
$$

COZ017>023-064>068-120900-
...SOUTHWEST COLORADO...

CITY           SKY/WX    TMP DP  RH WIND       PRES   REMARKS
DURANGO        CLOUDY    21  17  84 NE5       30.40S WCI  15
CORTEZ         CLOUDY    24  19  81 NE8       30.40S WCI  15
PAGOSA SPRINGS CLOUDY    25  17  69 CALM      30.42S
TELLURIDE      CLOUDY    31  12  45 SE7       30.48F WCI  25
WOLF CREEK PAS CLOUDY    30   5  34 CALM      30.56S
$$

COZ009-010-012-014-032>034-037-058>063-120900-
...CENTRAL COLORADO...

CITY           SKY/WX    TMP DP  RH WIND       PRES   REMARKS
ASPEN          CLOUDY    22  12  65 S8        30.42F WCI  12
BUENA VISTA    CLOUDY    28  20  71 NW3       30.40S
COPPER MTN     CLOUDY    28  14  54 W17G25    30.49S WCI  16
BERTHOUD PASS  MOCLDY    21  10  63 NW40G52   30.41R WCI   1
COTTONWOOD PAS CLOUDY    39  14  35 SW6       30.43F
GUNNISON       CLOUDY     0 -24  32 NE5       30.53S WCI -10
KREMMLING      CLOUDY     3   0  85 CALM      30.46S
LEADVILLE      CLOUDY    24  11  57 CALM      30.43F
MONARCH PASS   CLOUDY    25  12  58 MISG      30.59S
SALIDA         NOT AVBL
SUNLIGHT       CLOUDY    32   9  37 CALM        N/A
WILKERSON PASS CLOUDY    30  16  55 W6        30.48S WCI  24
$$

COZ069>075-120900-
...SAN LUIS VALLEY/SANGRE DE CRISTO MOUNTAINS...

CITY           SKY/WX    TMP DP  RH WIND       PRES   REMARKS
ALAMOSA        CLOUDY    20  18  92 SE5       30.40S WCI  13
LA VETA PASS   CLOUDY    30  12  47 MISG      30.42F
SAGUACHE       CLOUDY    28  16  59 NW13      30.42S WCI  18
$$

COZ035-036-038>040-120900-
...NORTHERN COLORADO FRONT RANGE...

CITY           SKY/WX    TMP DP  RH WIND       PRES   REMARKS
DENVER INTL AP CLOUDY    35  25  66 S14       30.25F WCI  26
DMNS CITY PARK   N/A     40  23  51 SE9       30.25F
AURORA         PTCLDY    40  24  52 SE16      30.25F
FRONT RANGE AP NOT AVBL
ERIE MUNI ARPT CLOUDY    40  26  57 S3        30.25S
BOULDER MUN AP CLOUDY    37  27  65 CALM      30.24F
CENTENNIAL     CLOUDY    37  24  59 SE13      30.26F
BROOMFIELD     CLOUDY    41  27  56 S6        30.25S
FORT COLLINS   CLOUDY    34  25  69 E3        30.27S
LONGMONT       CLOUDY    35  28  78 N5        30.27S WCI  30
$$

COZ041-046-047-076>085-087-088-120900-
...PIKES PEAK/PALMER DIVIDE AND SOUTHERN FOOTHILLS...

CITY           SKY/WX    TMP DP  RH WIND       PRES   REMARKS
COLO. SPRINGS  CLOUDY    37  23  56 CALM      30.33S
A. F. ACADEMY  CLOUDY    28  21  75 N8        30.32S WCI  20
SCHRIEVER AFB  FAIR      32  23  71 SW5       30.33F WCI  27
ELLICOTT       CLOUDY   N/A N/A N/A CALM      30.32S
FALCON         CLOUDY    31  21  67 W10       30.33S WCI  22
FORT CARSON    CLOUDY    37  25  62 SW8       30.31S HAZE
LIMON          CLOUDY    20  18  92 N6        30.30R WCI  12
MONUMENT HILL  CLOUDY    32  21  64 SW12      30.31F WCI  23
TRINIDAD       CLOUDY    29  20  69 W9        30.34F WCI  20
$$

COZ042>045-048>051-090-091-120900-
...NORTHEAST COLORADO...

CITY           SKY/WX    TMP DP  RH WIND       PRES   REMARKS
GREELEY ARPT     N/A     28  25  86 CALM      30.28S
AKRON          CLOUDY    32  26  78 SW10      30.27R WCI  24
BURLINGTON     CLOUDY    31  25  78 W8        30.26R WCI  23
WRAY           NOT AVBL
STERLING       CLOUDY    28  27  93 SW8       30.26R WCI  20
HOLYOKE        CLEAR     34  30  86 W8        30.25R WCI  27
FORT MORGAN    CLOUDY    33  25  72 NW3       30.28R
$$

COZ086-089-092>099-120900-
...SOUTHEAST COLORADO...

CITY           SKY/WX    TMP DP  RH WIND       PRES   REMARKS
PUEBLO         CLEAR     34  25  69 NW3       30.31F
LA JUNTA       CLOUDY    36  28  73 W14       30.30S
LAMAR          CLOUDY    31  26  82 SW9       30.28R WCI  23
SPRINGFIELD      N/A     31  24  75 NW10      30.27S WCI  22
$$



USA.gov is the U.S. government's official web portal to all federal, state and local government web resources and services.